This demonstration page uses our WeatherBlox Daily Observations layout. Learn more.

Left ArrowRight Arrow

36.17497, -115.13722

Hourly Observations for July 25, 2017

Temp ( °F °C ) Dew Point ( °F °C ) Humidity (%) Winds ( mph kmh ) Pressure ( in mb ) Visibility ( mi km ) Precip ( " mm )
12:53 am 00:53 Mostly Clear 84 28.9 67 19.4 57 57 ESE 9 15 29.85 1011 10 16 N/A
1:53 am 01:53 Mostly Cloudy 84 28.9 67 19.4 57 57 E 9 15 29.85 1011 10 16 N/A
2:53 am 02:53 Cloudy 82 27.8 68 20 63 63 E 20 31 29.88 1012 10 16 N/A
3:53 am 03:53 Partly Cloudy 79 26.1 68 20 69 69 E 14 22 29.90 1012 10 16 N/A
4:53 am 04:53 Mostly Clear 78 25.6 66 18.9 67 67 E 12 19 29.91 1013 10 16 N/A
5:53 am 05:53 Cloudy 76 24.4 68 20 77 77 E 15 24 29.94 1014 10 16 N/A
6:53 am 06:53 Cloudy 76 24.4 68 20 77 77 E 17 28 29.96 1015 10 16 N/A
7:53 am 07:53 Cloudy with Light Rain 75 23.9 69 20.6 82 82 E 14 22 30.00 1016 10 16 N/A
8:53 am 08:53 Mostly Cloudy 74 23.3 69 20.6 85 85 E 9 15 30.01 1016 10 16 N/A
9:53 am 09:53 Mostly Sunny 76 24.4 68 20 77 77 SE 7 11 30.01 1016 10 16 N/A
10:53 am 10:53 Mostly Cloudy 80 26.7 67 19.4 64 64 S 9 15 30.02 1017 10 16 N/A
11:07 am 11:07 Mostly Cloudy 80 26.7 66 18.9 62 62 SE 8 13 29.91 1013 10 16 N/A
11:53 am 11:53 Partly Cloudy 80 26.7 65 18.3 60 60 SSE 9 15 30.02 1017 10 16 N/A
12:53 pm 12:53 Partly Cloudy with Nearby Thunderstorms 80 26.7 66 18.9 62 62 SE 10 17 30.05 1018 10 16 N/A
1:10 pm 13:10 Mostly Cloudy 81 27.2 66 18.9 61 61 SE 15 24 29.94 1014 10 16 N/A
1:53 pm 13:53 Sunny 80 26.7 65 18.3 60 60 SE 10 17 30.04 1017 10 16 N/A
2:04 pm 14:04 Sunny with Nearby Thunderstorms 79 26.1 66 18.9 65 65 S 10 17 29.94 1014 10 16 N/A
2:19 pm 14:19 Sunny 79 26.1 66 18.9 65 65 SSE 14 22 29.94 1014 10 16 N/A
2:53 pm 14:53 Sunny 80 26.7 64 17.8 58 58 S 12 19 30.04 1017 10 16 N/A
3:53 pm 15:53 Sunny 82 27.8 64 17.8 55 55 SSE 12 19 30.01 1016 10 16 N/A
4:53 pm 16:53 Sunny 82 27.8 63 17.2 53 53 SE 8 13 30.00 1016 10 16 N/A
5:53 pm 17:53 Sunny 83 28.3 63 17.2 51 51 SE 6 9 29.99 1016 10 16 N/A
6:53 pm 18:53 Sunny 83 28.3 64 17.8 53 53 SE 3 6 29.99 1016 10 16 N/A
7:53 pm 19:53 Clear 82 27.8 64 17.8 55 55 SE 7 11 29.98 1015 10 16 N/A
8:53 pm 20:53 Clear 81 27.2 65 18.3 58 58 ESE 7 11 29.99 1016 10 16 N/A
9:53 pm 21:53 Clear 80 26.7 66 18.9 62 62 ESE 8 13 30.02 1017 10 16 N/A
10:53 pm 22:53 Clear 80 26.7 66 18.9 62 62 SSE 6 9 30.02 1017 10 16 N/A
11:53 pm 23:53 Clear 80 26.7 66 18.9 62 62 S 5 7 30.03 1017 10 16 N/A

Powered by AerisWeather